Location: Multiple Mirror Telescope
(31.6889°N, 110.8853°W)
Time: 09:42:49
(UTC-07:00)

Hubble Space Telescope - Pass Details

Date: 31 May 2024
Orbit: 511 x 515 km, 28.5° (Epoch: 14 June)

Event Time Altitude Azimuth Distance (km) Brightness Sun altitude
Rises 20:43:05 0° 267° (W) 2,613 5.1 -15.0°
Reaches altitude 10° 20:45:22 10° 262° (W) 1,726 4.0 -15.4°
Maximum altitude 20:49:13 48° 187° (S) 674 1.0 -16.0°
Enters shadow 20:50:28 34° 137° (SE) 851 1.2 -16.2°
